Time,TemperatureF,DewpointF,PressureIn,WindDirection,WindDirectionDegrees,WindSpeedMPH,WindSpeedGustMPH,Humidity,HourlyPrecipIn,Conditions,Clouds,dailyrainin,SolarRadiationWatts/m^2,SoftwareType,DateUTC
2013-08-22 00:04:00,70.1,6.0,30.02,WSW,257,0.0,0.0,8,0.00,,,0.00,0,WeatherHawk,2013-08-22 07:04:00,
2013-08-22 00:10:00,69.0,5.2,30.02,NW,322,0.0,0.0,8,0.00,,,0.00,1,WeatherHawk,2013-08-22 07:10:00,
2013-08-22 00:16:00,67.8,11.4,30.03,NW,318,0.0,0.0,11,0.00,,,0.00,0,WeatherHawk,2013-08-22 07:16:00,
2013-08-22 00:21:00,68.1,9.5,30.03,NE,37,0.0,0.0,10,0.00,,,0.00,0,WeatherHawk,2013-08-22 07:21:00,
2013-08-22 00:26:00,68.1,4.6,30.03,East,95,0.0,0.0,8,0.00,,,0.00,0,WeatherHawk,2013-08-22 07:26:00,
2013-08-22 00:31:00,69.6,-0.5,30.04,WSW,241,2.0,0.0,6,0.00,,,0.00,0,WeatherHawk,2013-08-22 07:31:00,
2013-08-22 00:36:00,67.6,-1.9,30.04,WSW,246,0.0,0.0,6,0.00,,,0.00,0,WeatherHawk,2013-08-22 07:36:00,
2013-08-22 00:42:00,67.7,4.3,30.05,NW,309,0.0,0.0,8,0.00,,,0.00,0,WeatherHawk,2013-08-22 07:42:00,
2013-08-22 00:47:00,67.1,8.7,30.04,WSW,258,0.0,0.0,10,0.00,,,0.00,0,WeatherHawk,2013-08-22 07:47:00,
2013-08-22 00:52:00,65.3,7.4,30.03,NNW,334,0.0,0.0,10,0.00,,,0.00,0,WeatherHawk,2013-08-22 07:52:00,
2013-08-22 00:57:00,65.8,7.7,30.04,SE,143,0.0,0.0,10,0.00,,,0.00,0,WeatherHawk,2013-08-22 07:57:00,
2013-08-22 01:02:00,68.2,1.8,30.04,West,274,0.0,0.0,7,0.00,,,0.00,1,WeatherHawk,2013-08-22 08:02:00,
2013-08-22 01:08:00,67.2,6.5,30.04,WSW,239,0.0,0.0,9,0.00,,,0.00,0,WeatherHawk,2013-08-22 08:08:00,
2013-08-22 01:13:00,67.7,11.3,30.03,WSW,239,0.0,0.0,11,0.00,,,0.00,0,WeatherHawk,2013-08-22 08:13:00,
2013-08-22 01:18:00,66.2,5.7,30.03,WSW,239,0.0,0.0,9,0.00,,,0.00,0,WeatherHawk,2013-08-22 08:18:00,
2013-08-22 01:23:00,67.0,10.8,30.04,West,259,1.0,0.0,11,0.00,,,0.00,0,WeatherHawk,2013-08-22 08:23:00,
2013-08-22 01:28:00,66.4,10.3,30.02,West,268,1.0,0.0,11,0.00,,,0.00,0,WeatherHawk,2013-08-22 08:28:00,
2013-08-22 01:34:00,64.6,4.5,30.02,SW,233,0.0,0.0,9,0.00,,,0.00,0,WeatherHawk,2013-08-22 08:34:00,
2013-08-22 01:39:00,65.2,5.0,30.03,West,275,2.0,0.0,9,0.00,,,0.00,0,WeatherHawk,2013-08-22 08:39:00,
2013-08-22 01:45:00,65.3,5.0,30.03,WNW,301,4.0,0.0,9,0.00,,,0.00,0,WeatherHawk,2013-08-22 08:45:00,
2013-08-22 01:50:00,65.9,9.9,30.03,West,270,2.0,0.0,11,0.00,,,0.00,1,WeatherHawk,2013-08-22 08:50:00,
2013-08-22 01:55:00,65.3,5.1,30.02,West,261,0.0,0.0,9,0.00,,,0.00,0,WeatherHawk,2013-08-22 08:55:00,
2013-08-22 02:01:00,64.2,8.6,30.03,NNW,329,0.0,0.0,11,0.00,,,0.00,0,WeatherHawk,2013-08-22 09:01:00,
2013-08-22 02:06:00,63.3,9.9,30.02,North,0,0.0,0.0,12,0.00,,,0.00,0,WeatherHawk,2013-08-22 09:06:00,
2013-08-22 02:11:00,63.2,13.2,30.03,WSW,255,0.0,0.0,14,0.00,,,0.00,0,WeatherHawk,2013-08-22 09:11:00,
2013-08-22 02:16:00,61.8,12.1,30.03,SSW,211,0.0,0.0,14,0.00,,,0.00,1,WeatherHawk,2013-08-22 09:16:00,
2013-08-22 02:21:00,62.1,13.9,30.02,SSW,211,0.0,0.0,15,0.00,,,0.00,0,WeatherHawk,2013-08-22 09:21:00,
2013-08-22 02:26:00,64.1,12.3,30.03,SE,131,0.0,0.0,13,0.00,,,0.00,0,WeatherHawk,2013-08-22 09:26:00,
2013-08-22 02:31:00,65.2,9.4,30.03,North,0,4.0,0.0,11,0.00,,,0.00,0,WeatherHawk,2013-08-22 09:31:00,
2013-08-22 02:36:00,62.7,7.4,30.04,West,270,0.0,0.0,11,0.00,,,0.00,0,WeatherHawk,2013-08-22 09:36:00,
2013-08-22 02:41:00,63.8,10.2,30.03,SW,222,0.0,0.0,12,0.00,,,0.00,0,WeatherHawk,2013-08-22 09:41:00,
2013-08-22 02:47:00,63.4,11.7,30.03,West,281,0.0,0.0,13,0.00,,,0.00,1,WeatherHawk,2013-08-22 09:47:00,
2013-08-22 02:52:00,63.1,7.8,30.03,NW,314,2.0,0.0,11,0.00,,,0.00,0,WeatherHawk,2013-08-22 09:52:00,
2013-08-22 02:57:00,62.3,10.8,30.02,West,264,0.0,0.0,13,0.00,,,0.00,0,WeatherHawk,2013-08-22 09:57:00,
2013-08-22 03:03:00,61.9,10.6,30.02,West,277,0.0,0.0,13,0.00,,,0.00,0,WeatherHawk,2013-08-22 10:03:00,
2013-08-22 03:08:00,62.6,11.1,30.02,WSW,250,0.0,0.0,13,0.00,,,0.00,0,WeatherHawk,2013-08-22 10:08:00,
2013-08-22 03:13:00,62.6,12.7,30.02,WNW,284,2.0,0.0,14,0.00,,,0.00,1,WeatherHawk,2013-08-22 10:13:00,
2013-08-22 03:18:00,61.2,10.0,30.02,South,176,0.0,0.0,13,0.00,,,0.00,0,WeatherHawk,2013-08-22 10:18:00,
2013-08-22 03:23:00,62.3,10.9,30.03,South,176,0.0,0.0,13,0.00,,,0.00,0,WeatherHawk,2013-08-22 10:23:00,
2013-08-22 03:28:00,62.8,7.5,30.03,SE,134,0.0,0.0,11,0.00,,,0.00,0,WeatherHawk,2013-08-22 10:28:00,
2013-08-22 03:33:00,61.3,6.4,30.03,SE,134,0.0,0.0,11,0.00,,,0.00,0,WeatherHawk,2013-08-22 10:33:00,
2013-08-22 03:38:00,61.7,12.0,30.03,NNE,27,0.0,0.0,14,0.00,,,0.00,0,WeatherHawk,2013-08-22 10:38:00,
2013-08-22 03:43:00,61.1,13.1,30.03,NNE,27,0.0,0.0,15,0.00,,,0.00,0,WeatherHawk,2013-08-22 10:43:00,
2013-08-22 03:48:00,61.4,17.6,30.03,NNE,27,0.0,0.0,18,0.00,,,0.00,0,WeatherHawk,2013-08-22 10:48:00,
2013-08-22 05:28:00,59.0,12.9,30.02,SW,217,0.0,0.0,16,0.00,,,0.00,0,WeatherHawk,2013-08-22 12:28:00,
2013-08-22 05:33:00,58.9,14.2,30.03,SW,218,0.0,0.0,17,0.00,,,0.00,0,WeatherHawk,2013-08-22 12:33:00,
2013-08-22 05:38:00,59.5,13.3,30.03,SW,218,0.0,0.0,16,0.00,,,0.00,0,WeatherHawk,2013-08-22 12:38:00,
2013-08-22 05:44:00,59.6,10.4,30.03,SSW,212,0.0,0.0,14,0.00,,,0.00,0,WeatherHawk,2013-08-22 12:44:00,
2013-08-22 05:49:00,58.7,11.2,30.03,WNW,298,0.0,0.0,15,0.00,,,0.00,0,WeatherHawk,2013-08-22 12:49:00,
2013-08-22 05:54:00,58.9,12.8,30.03,South,181,0.0,0.0,16,0.00,,,0.00,1,WeatherHawk,2013-08-22 12:54:00,
2013-08-22 05:59:00,59.2,15.8,30.03,South,181,0.0,0.0,18,0.00,,,0.00,0,WeatherHawk,2013-08-22 12:59:00,
2013-08-22 06:04:00,60.0,12.2,30.03,SE,142,0.0,0.0,15,0.00,,,0.00,0,WeatherHawk,2013-08-22 13:04:00,
2013-08-22 06:05:00,59.5,11.9,30.03,SE,142,0.0,0.0,15,0.00,,,0.00,1,WeatherHawk,2013-08-22 13:05:00,
2013-08-22 06:10:00,59.6,10.4,30.03,SE,142,0.0,0.0,14,0.00,,,0.00,0,WeatherHawk,2013-08-22 13:10:00,
2013-08-22 06:15:00,60.6,5.8,30.03,SE,131,0.0,0.0,11,0.00,,,0.00,0,WeatherHawk,2013-08-22 13:15:00,
2013-08-22 06:20:00,60.0,9.0,30.03,SE,131,0.0,0.0,13,0.00,,,0.00,1,WeatherHawk,2013-08-22 13:20:00,
2013-08-22 06:25:00,59.6,8.7,30.04,SE,131,0.0,0.0,13,0.00,,,0.00,3,WeatherHawk,2013-08-22 13:25:00,
2013-08-22 06:30:00,60.1,3.4,30.03,SW,217,3.0,0.0,10,0.00,,,0.00,5,WeatherHawk,2013-08-22 13:30:00,
2013-08-22 06:35:00,60.1,3.4,30.03,SSW,213,0.0,0.0,10,0.00,,,0.00,10,WeatherHawk,2013-08-22 13:35:00,
2013-08-22 06:40:00,59.5,5.0,30.04,WSW,247,0.0,0.0,11,0.00,,,0.00,11,WeatherHawk,2013-08-22 13:40:00,
2013-08-22 06:45:00,59.3,8.5,30.03,West,266,0.0,0.0,13,0.00,,,0.00,10,WeatherHawk,2013-08-22 13:45:00,
2013-08-22 06:50:00,59.0,14.2,30.04,NW,306,0.0,0.0,17,0.00,,,0.00,11,WeatherHawk,2013-08-22 13:50:00,
2013-08-22 06:55:00,59.3,11.7,30.04,SSE,153,3.0,0.0,15,0.00,,,0.00,14,WeatherHawk,2013-08-22 13:55:00,
2013-08-22 07:00:00,60.3,9.3,30.04,SW,227,0.0,0.0,13,0.00,,,0.00,15,WeatherHawk,2013-08-22 14:00:00,
2013-08-22 07:06:00,60.6,7.7,30.04,WSW,254,0.0,0.0,12,0.00,,,0.00,22,WeatherHawk,2013-08-22 14:06:00,
2013-08-22 07:11:00,59.6,10.4,30.04,West,259,0.0,0.0,14,0.00,,,0.00,27,WeatherHawk,2013-08-22 14:11:00,
2013-08-22 07:17:00,59.5,11.8,30.04,West,261,0.0,0.0,15,0.00,,,0.00,35,WeatherHawk,2013-08-22 14:17:00,
2013-08-22 07:22:00,59.6,16.0,30.04,SSW,197,0.0,0.0,18,0.00,,,0.00,42,WeatherHawk,2013-08-22 14:22:00,
2013-08-22 07:27:00,59.8,14.9,30.04,SSW,197,0.0,0.0,17,0.00,,,0.00,46,WeatherHawk,2013-08-22 14:27:00,
2013-08-22 07:32:00,60.4,14.0,30.04,SW,224,0.0,0.0,16,0.00,,,0.00,52,WeatherHawk,2013-08-22 14:32:00,
2013-08-22 07:37:00,60.6,11.1,30.04,SSE,149,0.0,0.0,14,0.00,,,0.00,55,WeatherHawk,2013-08-22 14:37:00,
2013-08-22 07:42:00,61.4,6.4,30.03,NNW,328,0.0,0.0,11,0.00,,,0.00,58,WeatherHawk,2013-08-22 14:42:00,
2013-08-22 07:48:00,61.3,2.0,30.03,NE,38,0.0,0.0,9,0.00,,,0.00,78,WeatherHawk,2013-08-22 14:48:00,
2013-08-22 07:53:00,62.9,3.2,30.03,NE,38,0.0,0.0,9,0.00,,,0.00,106,WeatherHawk,2013-08-22 14:53:00,
2013-08-22 07:58:00,62.7,7.4,30.03,SE,136,0.0,0.0,11,0.00,,,0.00,100,WeatherHawk,2013-08-22 14:58:00,
2013-08-22 08:03:00,60.7,5.9,30.03,WNW,301,2.0,0.0,11,0.00,,,0.00,113,WeatherHawk,2013-08-22 15:03:00,
2013-08-22 08:08:00,60.9,11.4,30.03,NNW,332,0.0,0.0,14,0.00,,,0.00,86,WeatherHawk,2013-08-22 15:08:00,
2013-08-22 08:13:00,61.1,11.6,30.03,NNW,332,0.0,0.0,14,0.00,,,0.00,63,WeatherHawk,2013-08-22 15:13:00,
2013-08-22 08:19:00,60.5,18.0,30.03,WNW,299,0.0,0.0,19,0.00,,,0.00,50,WeatherHawk,2013-08-22 15:19:00,
2013-08-22 08:24:00,60.5,15.5,30.03,West,267,0.0,0.0,17,0.00,,,0.00,51,WeatherHawk,2013-08-22 15:24:00,
2013-08-22 08:29:00,60.8,15.8,30.02,West,265,0.0,0.0,17,0.00,,,0.00,41,WeatherHawk,2013-08-22 15:29:00,
2013-08-22 08:34:00,62.0,8.8,30.02,SSE,148,0.0,0.0,12,0.00,,,0.00,34,WeatherHawk,2013-08-22 15:34:00,
2013-08-22 08:39:00,63.6,1.2,30.02,SW,224,0.0,0.0,8,0.00,,,0.00,34,WeatherHawk,2013-08-22 15:39:00,
2013-08-22 08:44:00,64.8,2.1,30.03,South,173,2.0,0.0,8,0.00,,,0.00,50,WeatherHawk,2013-08-22 15:44:00,
2013-08-22 08:49:00,64.6,4.5,30.02,SE,136,6.0,0.0,9,0.00,,,0.00,88,WeatherHawk,2013-08-22 15:49:00,
2013-08-22 08:54:00,65.3,-0.4,30.02,SSW,205,5.0,0.0,7,0.00,,,0.00,132,WeatherHawk,2013-08-22 15:54:00,
2013-08-22 08:59:00,64.0,10.4,30.02,West,266,0.0,0.0,12,0.00,,,0.00,154,WeatherHawk,2013-08-22 15:59:00,
2013-08-22 09:04:00,65.7,-0.1,30.02,South,188,9.0,0.0,7,0.00,,,0.00,137,WeatherHawk,2013-08-22 16:04:00,
2013-08-22 09:09:00,67.1,1.0,30.02,ENE,71,0.0,0.0,7,0.00,,,0.00,128,WeatherHawk,2013-08-22 16:09:00,
2013-08-22 09:14:00,63.8,3.9,30.02,West,273,0.0,0.0,9,0.00,,,0.00,140,WeatherHawk,2013-08-22 16:14:00,
2013-08-22 09:19:00,66.9,3.7,30.02,SW,231,0.0,0.0,8,0.00,,,0.00,139,WeatherHawk,2013-08-22 16:19:00,
2013-08-22 09:25:00,66.7,6.1,30.02,SSW,193,0.0,0.0,9,0.00,,,0.00,123,WeatherHawk,2013-08-22 16:25:00,
2013-08-22 09:30:00,66.9,6.3,30.02,South,175,7.0,0.0,9,0.00,,,0.00,132,WeatherHawk,2013-08-22 16:30:00,
2013-08-22 09:35:00,67.2,6.4,30.02,South,171,4.0,0.0,9,0.00,,,0.00,122,WeatherHawk,2013-08-22 16:35:00,
2013-08-22 09:40:00,67.5,6.7,30.02,SSE,156,0.0,0.0,9,0.00,,,0.00,117,WeatherHawk,2013-08-22 16:40:00,
2013-08-22 09:45:00,67.7,4.3,30.02,SSE,148,4.0,0.0,8,0.00,,,0.00,119,WeatherHawk,2013-08-22 16:45:00,
2013-08-22 09:50:00,66.5,5.9,30.02,NW,324,2.0,0.0,9,0.00,,,0.00,105,WeatherHawk,2013-08-22 16:50:00,
2013-08-22 09:55:00,67.0,3.8,30.01,SW,228,0.0,0.0,8,0.00,,,0.00,88,WeatherHawk,2013-08-22 16:55:00,
2013-08-22 10:00:00,67.9,1.6,30.01,SW,228,0.0,0.0,7,0.00,,,0.00,95,WeatherHawk,2013-08-22 17:00:00,
2013-08-22 10:06:00,66.6,3.4,30.02,NNW,338,5.0,0.0,8,0.00,,,0.00,104,WeatherHawk,2013-08-22 17:06:00,
2013-08-22 10:11:00,65.2,7.3,30.02,WNW,291,0.0,0.0,10,0.00,,,0.00,105,WeatherHawk,2013-08-22 17:11:00,
2013-08-22 10:16:00,64.6,15.9,30.02,NW,312,0.0,0.0,15,0.00,,,0.00,118,WeatherHawk,2013-08-22 17:16:00,
2013-08-22 10:21:00,65.2,13.1,30.02,NW,315,3.0,0.0,13,0.00,,,0.00,117,WeatherHawk,2013-08-22 17:21:00,
2013-08-22 10:26:00,67.1,16.3,30.03,NNW,348,0.0,0.0,14,0.00,,,0.00,107,WeatherHawk,2013-08-22 17:26:00,
2013-08-22 10:31:00,66.3,15.7,30.02,NNW,348,0.0,0.0,14,0.00,,,0.00,100,WeatherHawk,2013-08-22 17:31:00,
2013-08-22 10:36:00,64.7,17.5,30.02,NW,311,5.0,0.0,16,0.00,,,0.00,68,WeatherHawk,2013-08-22 17:36:00,
2013-08-22 10:41:00,64.7,16.0,30.02,West,274,0.0,0.0,15,0.00,,,0.00,48,WeatherHawk,2013-08-22 17:41:00,
2013-08-22 10:46:00,65.3,16.5,30.02,NW,304,0.0,0.0,15,0.00,,,0.00,47,WeatherHawk,2013-08-22 17:46:00,
2013-08-22 10:51:00,64.8,17.6,30.01,WNW,285,6.0,0.0,16,0.00,,,0.00,54,WeatherHawk,2013-08-22 17:51:00,
2013-08-22 10:56:00,65.2,16.4,30.01,WSW,241,1.0,0.0,15,0.00,,,0.00,59,WeatherHawk,2013-08-22 17:56:00,
2013-08-22 11:01:00,65.1,14.7,30.01,North,351,7.0,0.0,14,0.00,,,0.00,79,WeatherHawk,2013-08-22 18:01:00,
2013-08-22 11:06:00,66.1,13.8,30.00,West,272,0.0,0.0,13,0.00,,,0.00,111,WeatherHawk,2013-08-22 18:06:00,
2013-08-22 11:11:00,66.2,5.7,29.99,NNW,335,0.0,0.0,9,0.00,,,0.00,156,WeatherHawk,2013-08-22 18:11:00,
2013-08-22 11:17:00,67.2,6.5,30.00,SSE,157,7.0,0.0,9,0.00,,,0.00,188,WeatherHawk,2013-08-22 18:17:00,
2013-08-22 11:22:00,68.6,7.5,30.00,South,186,3.0,0.0,9,0.00,,,0.00,190,WeatherHawk,2013-08-22 18:22:00,
2013-08-22 11:28:00,68.6,2.1,30.00,South,173,4.0,0.0,7,0.00,,,0.00,193,WeatherHawk,2013-08-22 18:28:00,
2013-08-22 11:33:00,70.2,8.7,30.00,South,185,1.0,0.0,9,0.00,,,0.00,242,WeatherHawk,2013-08-22 18:33:00,
2013-08-22 11:38:00,72.0,-2.6,30.00,SW,221,2.0,0.0,5,0.00,,,0.00,668,WeatherHawk,2013-08-22 18:38:00,
2013-08-22 11:43:00,75.6,3.9,30.00,SSW,207,1.0,0.0,6,0.00,,,0.00,418,WeatherHawk,2013-08-22 18:43:00,
2013-08-22 11:48:00,73.4,8.6,29.99,West,277,4.0,0.0,8,0.00,,,0.00,410,WeatherHawk,2013-08-22 18:48:00,
2013-08-22 11:53:00,72.9,-1.9,29.98,NW,307,8.0,0.0,5,0.00,,,0.00,515,WeatherHawk,2013-08-22 18:53:00,
2013-08-22 11:59:00,70.4,-3.7,29.99,NW,315,6.0,0.0,5,0.00,,,0.00,518,WeatherHawk,2013-08-22 18:59:00,
2013-08-22 12:04:00,69.8,5.8,29.99,WNW,296,6.0,0.0,8,0.00,,,0.00,337,WeatherHawk,2013-08-22 19:04:00,
2013-08-22 12:09:00,72.5,4.9,29.99,West,266,0.0,0.0,7,0.00,,,0.00,357,WeatherHawk,2013-08-22 19:09:00,
2013-08-22 12:14:00,73.6,5.8,29.98,NNW,340,4.0,0.0,7,0.00,,,0.00,586,WeatherHawk,2013-08-22 19:14:00,
2013-08-22 12:19:00,72.9,5.3,29.98,NW,314,6.0,0.0,7,0.00,,,0.00,662,WeatherHawk,2013-08-22 19:19:00,
2013-08-22 12:24:00,73.9,-5.9,29.97,NNW,339,7.0,0.0,4,0.00,,,0.00,618,WeatherHawk,2013-08-22 19:24:00,
2013-08-22 12:29:00,77.2,1.1,29.97,NNW,343,2.0,0.0,5,0.00,,,0.00,581,WeatherHawk,2013-08-22 19:29:00,
2013-08-22 12:34:00,76.3,0.4,29.96,SSE,155,0.0,0.0,5,0.00,,,0.00,497,WeatherHawk,2013-08-22 19:34:00,
2013-08-22 12:39:00,76.5,0.6,29.96,NNW,337,6.0,0.0,5,0.00,,,0.00,494,WeatherHawk,2013-08-22 19:39:00,
2013-08-22 12:44:00,73.5,-1.5,29.96,NW,311,7.0,0.0,5,0.00,,,0.00,604,WeatherHawk,2013-08-22 19:44:00,
2013-08-22 12:49:00,75.5,-0.1,29.97,NNW,331,2.0,0.0,5,0.00,,,0.00,511,WeatherHawk,2013-08-22 19:49:00,
2013-08-22 12:54:00,75.7,0.0,29.97,NW,310,1.0,0.0,5,0.00,,,0.00,425,WeatherHawk,2013-08-22 19:54:00,
2013-08-22 12:59:00,78.8,2.2,29.96,ESE,110,0.0,0.0,5,0.00,,,0.00,350,WeatherHawk,2013-08-22 19:59:00,
2013-08-22 13:04:00,78.9,2.3,29.97,North,3,3.0,0.0,5,0.00,,,0.00,315,WeatherHawk,2013-08-22 20:04:00,
2013-08-22 13:09:00,75.9,0.1,29.97,NNE,12,6.0,0.0,5,0.00,,,0.00,376,WeatherHawk,2013-08-22 20:09:00,
2013-08-22 13:14:00,78.0,1.6,29.97,North,2,1.0,0.0,5,0.00,,,0.00,455,WeatherHawk,2013-08-22 20:14:00,
2013-08-22 13:19:00,76.3,0.5,29.97,NE,42,4.0,0.0,5,0.00,,,0.00,355,WeatherHawk,2013-08-22 20:19:00,
2013-08-22 13:24:00,77.1,1.0,29.96,NW,320,6.0,0.0,5,0.00,,,0.00,315,WeatherHawk,2013-08-22 20:24:00,
2013-08-22 13:29:00,77.8,1.5,29.98,WNW,284,0.0,0.0,5,0.00,,,0.00,450,WeatherHawk,2013-08-22 20:29:00,
2013-08-22 13:34:00,78.8,2.2,29.97,NW,311,0.0,0.0,5,0.00,,,0.00,493,WeatherHawk,2013-08-22 20:34:00,
2013-08-22 13:39:00,79.0,2.4,29.97,NNE,14,6.0,0.0,5,0.00,,,0.00,361,WeatherHawk,2013-08-22 20:39:00,
2013-08-22 13:45:00,78.7,2.1,29.96,North,0,2.0,0.0,5,0.00,,,0.00,288,WeatherHawk,2013-08-22 20:45:00,
2013-08-22 13:50:00,78.1,1.7,29.97,NNW,340,3.0,0.0,5,0.00,,,0.00,280,WeatherHawk,2013-08-22 20:50:00,
2013-08-22 13:55:00,78.5,2.0,29.96,NNE,15,5.0,0.0,5,0.00,,,0.00,271,WeatherHawk,2013-08-22 20:55:00,
2013-08-22 14:00:00,80.5,3.4,29.96,NNE,13,2.0,0.0,5,0.00,,,0.00,279,WeatherHawk,2013-08-22 21:00:00,
2013-08-22 14:05:00,79.6,2.8,29.96,NE,39,0.0,0.0,5,0.00,,,0.00,276,WeatherHawk,2013-08-22 21:05:00,
2013-08-22 14:10:00,79.3,2.6,29.96,NNE,19,5.0,0.0,5,0.00,,,0.00,247,WeatherHawk,2013-08-22 21:10:00,
2013-08-22 14:15:00,79.9,3.0,29.96,NE,39,3.0,0.0,5,0.00,,,0.00,258,WeatherHawk,2013-08-22 21:15:00,
2013-08-22 14:20:00,82.3,4.6,29.96,NW,318,0.0,0.0,5,0.00,,,0.00,297,WeatherHawk,2013-08-22 21:20:00,
2013-08-22 14:25:00,81.2,3.9,29.96,NW,307,7.0,0.0,5,0.00,,,0.00,379,WeatherHawk,2013-08-22 21:25:00,
2013-08-22 14:30:00,79.8,2.9,29.95,NW,322,5.0,0.0,5,0.00,,,0.00,494,WeatherHawk,2013-08-22 21:30:00,
2013-08-22 14:35:00,83.2,5.3,29.96,NNW,330,8.0,0.0,5,0.00,,,0.00,437,WeatherHawk,2013-08-22 21:35:00,
2013-08-22 14:40:00,80.1,3.1,29.95,NW,319,6.0,0.0,5,0.00,,,0.00,401,WeatherHawk,2013-08-22 21:40:00,
2013-08-22 14:45:00,81.9,4.4,29.95,North,351,4.0,0.0,5,0.00,,,0.00,288,WeatherHawk,2013-08-22 21:45:00,
2013-08-22 14:50:00,81.5,4.1,29.95,NW,322,7.0,0.0,5,0.00,,,0.00,239,WeatherHawk,2013-08-22 21:50:00,
2013-08-22 14:55:00,80.9,3.7,29.95,NNW,345,2.0,0.0,5,0.00,,,0.00,215,WeatherHawk,2013-08-22 21:55:00,
2013-08-22 15:00:00,80.7,3.6,29.95,NW,319,0.0,0.0,5,0.00,,,0.00,297,WeatherHawk,2013-08-22 22:00:00,
2013-08-22 15:06:00,82.1,4.5,29.95,North,7,6.0,0.0,5,0.00,,,0.00,387,WeatherHawk,2013-08-22 22:06:00,
2013-08-22 15:11:00,82.0,4.5,29.95,North,4,0.0,0.0,5,0.00,,,0.00,271,WeatherHawk,2013-08-22 22:11:00,
2013-08-22 15:16:00,80.7,3.5,29.94,East,95,1.0,0.0,5,0.00,,,0.00,186,WeatherHawk,2013-08-22 22:16:00,
2013-08-22 15:21:00,80.4,3.3,29.95,ESE,114,4.0,0.0,5,0.00,,,0.00,128,WeatherHawk,2013-08-22 22:21:00,
2013-08-22 15:26:00,80.7,3.5,29.96,East,80,4.0,0.0,5,0.00,,,0.00,108,WeatherHawk,2013-08-22 22:26:00,
2013-08-22 15:31:00,80.3,3.3,29.96,ENE,62,4.0,0.0,5,0.00,,,0.00,94,WeatherHawk,2013-08-22 22:31:00,
2013-08-22 15:36:00,80.3,3.2,29.96,ESE,112,0.0,0.0,5,0.00,,,0.00,88,WeatherHawk,2013-08-22 22:36:00,
2013-08-22 15:41:00,80.2,3.2,29.95,ESE,116,4.0,0.0,5,0.00,,,0.00,88,WeatherHawk,2013-08-22 22:41:00,
2013-08-22 15:47:00,80.5,3.4,29.96,ESE,109,0.0,0.0,5,0.00,,,0.00,80,WeatherHawk,2013-08-22 22:47:00,
2013-08-22 15:52:00,80.1,3.1,29.97,ESE,112,0.0,0.0,5,0.00,,,0.00,73,WeatherHawk,2013-08-22 22:52:00,
2013-08-22 15:57:00,80.4,3.3,29.96,SSE,148,2.0,0.0,5,0.00,,,0.00,76,WeatherHawk,2013-08-22 22:57:00,
2013-08-22 16:02:00,79.6,10.1,29.96,West,273,13.0,0.0,7,0.00,,,0.00,91,WeatherHawk,2013-08-22 23:02:00,
2013-08-22 16:07:00,73.7,27.5,29.97,SSW,194,14.0,0.0,18,0.00,,,0.00,107,WeatherHawk,2013-08-22 23:07:00,
2013-08-22 16:12:00,71.3,34.6,29.96,SSW,207,14.0,0.0,26,0.00,,,0.00,121,WeatherHawk,2013-08-22 23:12:00,
2013-08-22 16:17:00,71.9,35.2,29.98,SSW,210,9.0,0.0,26,0.00,,,0.00,140,WeatherHawk,2013-08-22 23:17:00,
2013-08-22 16:22:00,72.6,33.7,29.97,WSW,253,16.0,0.0,24,0.00,,,0.00,161,WeatherHawk,2013-08-22 23:22:00,
2013-08-22 16:27:00,73.1,33.1,29.98,WSW,248,9.0,0.0,23,0.00,,,0.00,144,WeatherHawk,2013-08-22 23:27:00,
2013-08-22 16:32:00,72.6,32.7,29.97,West,260,13.0,0.0,23,0.00,,,0.00,119,WeatherHawk,2013-08-22 23:32:00,
2013-08-22 16:37:00,72.2,33.4,29.97,WSW,253,9.0,0.0,24,0.00,,,0.00,115,WeatherHawk,2013-08-22 23:37:00,
2013-08-22 16:42:00,72.3,33.5,29.96,West,277,10.0,0.0,24,0.00,,,0.00,120,WeatherHawk,2013-08-22 23:42:00,
2013-08-22 16:47:00,71.8,34.1,29.98,NW,324,19.0,0.0,25,0.00,,,0.00,119,WeatherHawk,2013-08-22 23:47:00,
2013-08-22 16:53:00,72.4,33.6,29.97,NW,322,4.0,0.0,24,0.00,,,0.00,117,WeatherHawk,2013-08-22 23:53:00,
2013-08-22 16:58:00,72.0,32.2,29.98,WSW,249,5.0,0.0,23,0.00,,,0.00,77,WeatherHawk,2013-08-22 23:58:00,
2013-08-22 17:03:00,71.1,32.4,29.98,WSW,246,16.0,0.0,24,0.00,,,0.00,42,WeatherHawk,2013-08-23 00:03:00,
2013-08-22 17:09:00,70.6,33.1,29.98,West,278,12.0,0.0,25,0.00,,,0.00,29,WeatherHawk,2013-08-23 00:09:00,
2013-08-22 17:14:00,70.9,33.3,29.97,WNW,282,9.0,0.0,25,0.00,,,0.00,30,WeatherHawk,2013-08-23 00:14:00,
2013-08-22 17:19:00,70.7,34.1,29.97,WSW,248,12.0,0.0,26,0.00,,,0.00,27,WeatherHawk,2013-08-23 00:19:00,
2013-08-22 17:24:00,70.7,33.2,29.96,West,265,8.0,0.0,25,0.00,,,0.00,22,WeatherHawk,2013-08-23 00:24:00,
2013-08-22 17:29:00,71.0,32.4,29.97,SW,223,7.0,0.0,24,0.00,,,0.00,22,WeatherHawk,2013-08-23 00:29:00,
2013-08-22 17:35:00,71.1,31.4,29.97,SSW,212,10.0,0.0,23,0.00,,,0.00,12,WeatherHawk,2013-08-23 00:35:00,
2013-08-22 17:40:00,68.3,36.5,29.99,South,176,4.0,0.0,31,0.00,,,0.00,7,WeatherHawk,2013-08-23 00:40:00,
2013-08-22 17:45:00,66.0,41.6,30.00,SE,135,6.0,0.0,41,0.00,,,0.00,5,WeatherHawk,2013-08-23 00:45:00,
2013-08-22 17:50:00,66.0,44.0,30.01,ESE,112,4.0,0.0,45,0.00,,,0.00,5,WeatherHawk,2013-08-23 00:50:00,
2013-08-22 17:55:00,65.4,44.6,30.01,NNE,30,6.0,0.0,47,0.00,,,0.00,4,WeatherHawk,2013-08-23 00:55:00,
2013-08-22 18:00:00,65.2,46.6,30.01,SSW,196,4.0,0.0,51,0.00,,,0.00,3,WeatherHawk,2013-08-23 01:00:00,
2013-08-22 18:05:00,65.7,43.8,30.00,SE,141,5.0,0.0,45,0.00,,,0.00,5,WeatherHawk,2013-08-23 01:05:00,
2013-08-22 18:10:00,66.2,44.2,29.98,NE,55,7.0,0.0,45,0.00,,,0.00,5,WeatherHawk,2013-08-23 01:10:00,
2013-08-22 18:15:00,62.9,49.3,29.96,North,9,8.0,0.0,61,0.04,,,0.04,7,WeatherHawk,2013-08-23 01:15:00,
2013-08-22 18:20:00,64.0,51.1,29.96,WNW,286,7.0,0.0,63,0.04,,,0.04,9,WeatherHawk,2013-08-23 01:20:00,
2013-08-22 18:25:00,65.2,48.1,29.96,NE,46,3.0,0.0,54,0.04,,,0.04,15,WeatherHawk,2013-08-23 01:25:00,
2013-08-22 18:30:00,64.5,47.4,29.96,SSW,201,0.0,0.0,54,0.04,,,0.04,25,WeatherHawk,2013-08-23 01:30:00,
2013-08-22 18:36:00,64.7,48.6,29.96,SSE,158,5.0,0.0,56,0.04,,,0.04,32,WeatherHawk,2013-08-23 01:36:00,
2013-08-22 18:41:00,65.1,46.5,29.96,SSE,165,2.0,0.0,51,0.04,,,0.04,32,WeatherHawk,2013-08-23 01:41:00,
2013-08-22 18:46:00,65.4,46.8,29.97,SSE,154,2.0,0.0,51,0.04,,,0.04,27,WeatherHawk,2013-08-23 01:46:00,
2013-08-22 18:51:00,67.6,41.8,29.96,SE,137,0.0,0.0,39,0.04,,,0.04,21,WeatherHawk,2013-08-23 01:51:00,
2013-08-22 18:57:00,65.6,45.4,29.98,SSE,150,2.0,0.0,48,0.04,,,0.04,20,WeatherHawk,2013-08-23 01:57:00,
2013-08-22 19:02:00,66.8,43.6,29.98,South,174,0.0,0.0,43,0.04,,,0.04,19,WeatherHawk,2013-08-23 02:02:00,
2013-08-22 19:07:00,66.9,43.6,29.98,SSE,167,6.0,0.0,43,0.04,,,0.04,13,WeatherHawk,2013-08-23 02:07:00,
2013-08-22 19:12:00,65.9,43.9,29.98,South,174,1.0,0.0,45,0.04,,,0.04,9,WeatherHawk,2013-08-23 02:12:00,
2013-08-22 19:17:00,66.1,43.5,29.98,SSE,162,7.0,0.0,44,0.00,,,0.04,8,WeatherHawk,2013-08-23 02:17:00,
2013-08-22 19:23:00,66.0,44.1,29.96,SSE,163,8.0,0.0,45,0.00,,,0.04,9,WeatherHawk,2013-08-23 02:23:00,
2013-08-22 19:28:00,65.9,42.7,29.96,SSE,152,7.0,0.0,43,0.00,,,0.04,7,WeatherHawk,2013-08-23 02:28:00,
2013-08-22 19:33:00,66.4,42.6,29.96,SSE,158,4.0,0.0,42,0.00,,,0.04,7,WeatherHawk,2013-08-23 02:33:00,
2013-08-22 19:38:00,66.7,42.8,29.96,SSE,161,4.0,0.0,42,0.00,,,0.04,6,WeatherHawk,2013-08-23 02:38:00,
2013-08-22 19:43:00,66.5,43.3,29.96,South,173,5.0,0.0,43,0.00,,,0.04,5,WeatherHawk,2013-08-23 02:43:00,
2013-08-22 19:49:00,65.5,43.6,29.97,SE,140,0.0,0.0,45,0.00,,,0.04,3,WeatherHawk,2013-08-23 02:49:00,
2013-08-22 19:55:00,66.8,42.9,29.96,ESE,109,2.0,0.0,42,0.00,,,0.04,2,WeatherHawk,2013-08-23 02:55:00,
2013-08-22 20:00:00,65.5,43.6,29.96,SSE,156,7.0,0.0,45,0.00,,,0.04,1,WeatherHawk,2013-08-23 03:00:00,
2013-08-22 20:05:00,65.2,43.9,29.96,SE,137,6.0,0.0,46,0.00,,,0.04,0,WeatherHawk,2013-08-23 03:05:00,
2013-08-22 20:11:00,65.8,42.7,29.96,SSE,160,7.0,0.0,43,0.00,,,0.04,0,WeatherHawk,2013-08-23 03:11:00,
2013-08-22 20:16:00,65.4,42.9,29.96,SE,138,6.0,0.0,44,0.00,,,0.04,0,WeatherHawk,2013-08-23 03:16:00,
2013-08-22 20:21:00,65.7,42.6,29.96,SSE,147,7.0,0.0,43,0.00,,,0.04,0,WeatherHawk,2013-08-23 03:21:00,
2013-08-22 20:26:00,65.7,43.2,29.96,SSE,159,6.0,0.0,44,0.00,,,0.04,0,WeatherHawk,2013-08-23 03:26:00,
2013-08-22 20:31:00,65.8,43.2,29.96,ESE,113,6.0,0.0,44,0.00,,,0.04,0,WeatherHawk,2013-08-23 03:31:00,
2013-08-22 20:36:00,65.6,43.7,29.97,SSE,153,6.0,0.0,45,0.00,,,0.04,1,WeatherHawk,2013-08-23 03:36:00,
2013-08-22 20:41:00,66.4,43.8,29.97,SSE,161,10.0,0.0,44,0.00,,,0.04,0,WeatherHawk,2013-08-23 03:41:00,
2013-08-22 20:46:00,65.9,43.4,29.98,South,176,8.0,0.0,44,0.00,,,0.04,0,WeatherHawk,2013-08-23 03:46:00,
2013-08-22 20:52:00,65.6,43.1,29.98,South,178,8.0,0.0,44,0.00,,,0.04,0,WeatherHawk,2013-08-23 03:52:00,
2013-08-22 20:57:00,65.2,43.9,29.97,South,181,4.0,0.0,46,0.00,,,0.04,0,WeatherHawk,2013-08-23 03:57:00,
2013-08-22 21:01:00,65.1,43.8,29.98,South,178,5.0,0.0,46,0.00,,,0.04,0,WeatherHawk,2013-08-23 04:01:00,
2013-08-22 21:02:00,65.0,43.8,29.98,South,173,6.0,0.0,46,0.00,,,0.04,1,WeatherHawk,2013-08-23 04:02:00,
2013-08-22 21:03:00,65.0,44.3,29.98,South,183,6.0,0.0,47,0.00,,,0.04,0,WeatherHawk,2013-08-23 04:03:00,
2013-08-22 21:04:00,65.2,44.5,29.98,SSE,153,5.0,0.0,47,0.00,,,0.04,1,WeatherHawk,2013-08-23 04:04:00,
2013-08-22 21:05:00,65.6,44.3,29.98,SSE,161,6.0,0.0,46,0.00,,,0.04,0,WeatherHawk,2013-08-23 04:05:00,
2013-08-22 21:10:00,65.7,43.8,29.99,SSE,159,7.0,0.0,45,0.00,,,0.04,0,WeatherHawk,2013-08-23 04:10:00,
2013-08-22 21:15:00,65.7,44.4,29.99,SE,127,4.0,0.0,46,0.00,,,0.04,0,WeatherHawk,2013-08-23 04:15:00,
2013-08-22 21:21:00,66.2,44.2,29.98,SSE,158,6.0,0.0,45,0.00,,,0.04,0,WeatherHawk,2013-08-23 04:21:00,
2013-08-22 21:26:00,66.6,41.5,29.99,South,171,7.0,0.0,40,0.00,,,0.04,0,WeatherHawk,2013-08-23 04:26:00,
2013-08-22 21:31:00,66.4,41.3,29.99,SW,235,2.0,0.0,40,0.00,,,0.04,0,WeatherHawk,2013-08-23 04:31:00,
2013-08-22 21:36:00,67.4,36.5,29.98,WSW,243,0.0,0.0,32,0.00,,,0.04,0,WeatherHawk,2013-08-23 04:36:00,
2013-08-22 21:41:00,68.7,34.3,29.98,South,187,7.0,0.0,28,0.00,,,0.04,0,WeatherHawk,2013-08-23 04:41:00,
2013-08-22 21:47:00,67.7,33.4,29.98,SSW,205,0.0,0.0,28,0.00,,,0.04,0,WeatherHawk,2013-08-23 04:47:00,
2013-08-22 21:52:00,67.2,36.4,29.98,WNW,283,3.0,0.0,32,0.00,,,0.04,0,WeatherHawk,2013-08-23 04:52:00,
2013-08-22 21:57:00,66.5,38.0,29.98,West,278,0.0,0.0,35,0.00,,,0.04,0,WeatherHawk,2013-08-23 04:57:00,
2013-08-22 22:03:00,67.0,39.1,29.97,West,272,5.0,0.0,36,0.00,,,0.04,0,WeatherHawk,2013-08-23 05:03:00,
2013-08-22 22:08:00,68.1,33.8,29.97,West,278,10.0,0.0,28,0.00,,,0.04,0,WeatherHawk,2013-08-23 05:08:00,
2013-08-22 22:13:00,66.5,35.7,29.97,WNW,286,2.0,0.0,32,0.00,,,0.04,0,WeatherHawk,2013-08-23 05:13:00,
2013-08-22 22:18:00,66.9,38.4,29.97,WNW,288,7.0,0.0,35,0.00,,,0.04,0,WeatherHawk,2013-08-23 05:18:00,
2013-08-22 22:23:00,67.0,37.0,29.97,WSW,256,5.0,0.0,33,0.00,,,0.04,0,WeatherHawk,2013-08-23 05:23:00,
2013-08-22 22:29:00,66.3,35.6,29.97,WNW,302,6.0,0.0,32,0.00,,,0.04,0,WeatherHawk,2013-08-23 05:29:00,
2013-08-22 22:34:00,67.0,34.5,29.97,SW,225,8.0,0.0,30,0.00,,,0.04,1,WeatherHawk,2013-08-23 05:34:00,
2013-08-22 22:39:00,67.3,34.0,29.96,WSW,252,8.0,0.0,29,0.00,,,0.04,0,WeatherHawk,2013-08-23 05:39:00,
2013-08-22 22:45:00,67.6,34.2,29.95,West,280,3.0,0.0,29,0.00,,,0.04,0,WeatherHawk,2013-08-23 05:45:00,
2013-08-22 22:50:00,67.0,33.7,29.96,WSW,255,1.0,0.0,29,0.00,,,0.04,0,WeatherHawk,2013-08-23 05:50:00,
2013-08-22 22:55:00,66.9,35.3,29.96,NW,317,0.0,0.0,31,0.00,,,0.04,0,WeatherHawk,2013-08-23 05:55:00,
2013-08-22 23:00:00,66.7,35.9,29.96,NW,316,0.0,0.0,32,0.00,,,0.04,1,WeatherHawk,2013-08-23 06:00:00,
2013-08-22 23:05:00,66.5,36.5,29.96,ESE,116,0.0,0.0,33,0.00,,,0.04,0,WeatherHawk,2013-08-23 06:05:00,
2013-08-22 23:10:00,66.4,35.6,29.96,ESE,116,0.0,0.0,32,0.00,,,0.04,1,WeatherHawk,2013-08-23 06:10:00,
2013-08-22 23:15:00,65.6,35.8,29.96,SE,129,3.0,0.0,33,0.00,,,0.04,0,WeatherHawk,2013-08-23 06:15:00,
2013-08-22 23:20:00,65.6,35.7,29.96,SE,136,4.0,0.0,33,0.00,,,0.04,1,WeatherHawk,2013-08-23 06:20:00,
2013-08-22 23:25:00,65.8,35.1,29.96,SE,132,3.0,0.0,32,0.00,,,0.04,0,WeatherHawk,2013-08-23 06:25:00,
2013-08-22 23:31:00,65.6,35.7,29.96,SSE,150,4.0,0.0,33,0.00,,,0.04,0,WeatherHawk,2013-08-23 06:31:00,
2013-08-22 23:36:00,65.3,35.5,29.95,SE,146,3.0,0.0,33,0.00,,,0.04,0,WeatherHawk,2013-08-23 06:36:00,
2013-08-22 23:41:00,65.0,35.2,29.96,SE,143,4.0,0.0,33,0.00,,,0.04,0,WeatherHawk,2013-08-23 06:41:00,
2013-08-22 23:46:00,65.1,36.0,29.96,SSE,148,5.0,0.0,34,0.00,,,0.04,0,WeatherHawk,2013-08-23 06:46:00,
2013-08-22 23:51:00,64.6,35.6,29.97,SSE,162,2.0,0.0,34,0.00,,,0.04,0,WeatherHawk,2013-08-23 06:51:00,
2013-08-22 23:56:00,65.9,36.0,29.96,SSE,155,5.0,0.0,33,0.00,,,0.04,0,WeatherHawk,2013-08-23 06:56:00,